Вернуться в каталог

WILDFIRE 6

АктивенНаукаPO
NORAD 57763·PAYLOAD·🇺🇸 United States

Запущен Sep 2, 2023 с Vandenberg Space Force Base

Loading…

Ближайшие Пролёты (ближайшие 24 часа)

TLE

СвежийSource: Space-Track

Эпоха: Sep 14, 2026, 01:49 UTC

1 57763U 23133G   26257.07581368  .00000054  00000-0  37106-4 0  9990
2 57763  80.9919 281.7434 0007285 133.9097 226.2663 13.85680865153320

Отслеживайте WILDFIRE 6 в реальном времени с AllMySat

Download on the App Store